Date,TemperatureHighF,TemperatureAvgF,TemperatureLowF,DewpointHighF,DewpointAvgF,DewpointLowF,HumidityHigh,HumidityAvg,HumidityLow,PressureMaxIn,PressureMinIn,WindSpeedMaxMPH,WindSpeedAvgMPH,GustSpeedMaxMPH,PrecipitationSumIn
2013-1-1,28,26,25,23,21,20,87,82,78,30.69,30.54,7,2,7,0.00
2013-1-2,28,26,24,22,21,20,92,82,76,30.68,30.55,11,5,12,0.00
2013-1-3,27,26,22,21,20,18,88,81,76,30.55,30.40,13,5,14,0.00
2013-1-4,28,24,21,24,21,18,89,85,80,30.50,30.42,18,3,21,0.00
2013-1-5,33,29,26,28,26,23,95,88,80,30.46,30.24,19,7,20,0.00
2013-1-6,30,28,27,28,26,25,96,95,91,30.26,30.11,6,2,7,0.01
2013-1-7,34,29,26,32,27,24,96,93,87,30.11,29.87,14,2,15,0.03
2013-1-8,41,34,25,39,32,22,97,92,73,30.15,29.80,13,3,14,0.08
2013-1-9,48,42,32,39,33,24,91,72,59,29.81,29.59,26,7,28,0.00
2013-1-10,37,32,27,27,21,14,77,64,55,30.02,29.79,31,11,31,0.00
2013-1-11,32,27,21,18,15,12,75,61,52,30.30,30.01,34,11,35,0.00
2013-1-12,27,22,17,15,13,9,83,67,54,30.43,30.30,17,4,17,0.00
2013-1-13,28,22,17,20,16,11,92,75,61,30.51,30.41,10,2,12,0.00
2013-1-14,28,24,21,22,20,17,92,82,76,30.53,30.38,12,3,14,0.00
2013-1-15,30,24,18,24,20,15,95,84,76,30.67,30.59,14,3,14,0.00
2013-1-16,31,30,26,27,26,24,92,85,81,30.67,30.61,12,3,15,0.00
2013-1-17,28,26,25,25,24,22,92,88,85,30.63,30.44,11,2,11,0.00
2013-1-18,28,26,26,26,25,23,95,93,89,30.44,30.34,7,2,10,0.00
2013-1-19,31,27,23,26,23,21,92,87,79,30.53,30.42,13,3,14,0.00
2013-1-20,26,24,19,23,21,16,93,90,87,30.62,30.50,6,1,7,0.00
2013-1-21,22,20,19,21,18,17,94,92,89,30.51,30.41,8,3,9,0.00
2013-1-22,23,21,20,21,19,18,94,90,86,30.41,30.28,8,2,8,0.00
2013-1-23,27,27,26,25,24,24,93,91,91,30.05,30.03,5,2,5,0.00
2013-1-24,30,26,19,28,24,17,100,90,86,30.35,30.22,11,2,11,0.00
2013-1-25,31,29,28,30,28,26,95,93,90,30.22,30.00,6,1,6,0.00
2013-1-26,32,31,28,31,28,27,95,91,88,30.03,29.96,5,1,5,0.01
2013-1-27,32,30,28,30,28,27,95,93,90,30.06,29.98,5,1,7,0.00
2013-1-28,32,30,28,30,28,26,96,93,90,30.00,29.90,12,1,12,0.00
2013-1-29,42,33,26,34,29,24,93,86,68,30.24,29.92,11,2,11,0.00
2013-1-30,52,42,30,38,33,26,90,73,56,30.24,30.14,13,3,13,0.00
2013-1-31,41,36,32,39,32,29,95,87,76,30.28,30.21,13,2,13,0.01
2013-2-1,45,37,27,37,32,25,93,83,65,30.48,30.22,12,3,13,0.00
2013-2-2,43,33,26,36,30,24,95,89,74,30.51,30.29,10,2,10,0.00
2013-2-3,34,30,26,32,29,24,100,94,91,30.29,30.16,8,1,8,0.00
2013-2-4,35,32,29,34,30,28,97,95,92,30.18,29.98,9,1,10,0.01
2013-2-5,42,34,30,39,33,28,97,94,85,30.00,29.85,9,2,9,0.00
2013-2-6,47,39,29,38,33,27,95,81,67,30.07,29.92,15,4,15,0.01
2013-2-7,48,39,32,36,31,26,91,74,43,30.07,29.87,16,3,16,0.00
2013-2-8,48,38,32,30,26,22,81,61,44,30.18,30.07,24,6,25,0.00
2013-2-9,43,34,26,33,28,24,93,79,63,30.24,30.11,21,4,21,0.00
2013-2-10,48,38,28,33,29,23,86,69,53,30.31,30.21,13,4,16,0.00
2013-2-11,41,32,26,32,28,24,95,87,71,30.27,30.19,12,2,12,0.00
2013-2-12,48,36,30,38,32,27,93,83,67,30.30,30.16,30,4,32,0.00
2013-2-13,53,45,36,37,31,26,80,59,37,30.37,30.15,27,8,27,0.00
2013-2-14,49,39,32,34,29,26,85,68,54,30.49,30.36,12,3,12,0.00
2013-2-18,40,36,31,32,30,27,86,76,64,30.02,29.80,18,4,18,0.00
2013-2-19,43,36,30,32,29,25,90,75,57,29.93,29.76,23,7,23,0.00
2013-2-20,46,37,30,32,26,20,84,63,46,30.02,29.93,20,4,21,0.00
2013-2-21,48,35,26,33,28,23,92,78,51,30.03,29.96,23,3,23,0.00
2013-2-22,50,40,34,37,31,22,84,69,52,29.98,29.62,31,6,31,0.00
2013-2-23,50,42,33,28,24,22,68,50,36,30.25,29.75,33,13,33,0.00
2013-2-24,44,37,30,31,27,23,83,68,55,30.30,30.03,13,4,13,0.00
2013-2-25,48,38,31,34,28,20,90,68,34,30.16,29.90,34,9,34,0.00
2013-2-26,48,39,30,28,25,20,72,58,36,30.31,30.16,15,6,22,0.00
2013-2-27,48,39,28,32,28,23,84,66,51,30.30,30.19,12,4,14,0.00
2013-2-28,44,41,38,42,37,31,94,84,65,30.33,30.24,8,2,8,0.12
2013-3-1,58,50,40,48,43,38,94,79,61,30.33,30.22,27,8,29,0.00
2013-3-2,53,46,39,44,39,29,92,79,53,30.23,29.91,25,4,25,0.00
2013-3-3,49,41,31,29,21,15,68,48,26,30.22,29.98,28,12,28,0.00
2013-3-4,41,38,34,26,24,21,65,56,50,30.28,30.22,23,6,23,0.00
2013-3-7,51,43,35,38,35,32,90,72,50,30.06,29.96,18,4,18,0.01
2013-3-8,52,41,34,39,34,30,90,77,56,30.15,30.04,9,2,11,0.00
2013-3-9,56,43,33,36,32,28,92,66,36,30.37,30.15,12,3,12,0.00
2013-3-10,47,40,31,34,31,25,92,71,56,30.39,30.25,16,3,17,0.00
2013-3-11,52,45,37,33,28,24,74,53,35,30.36,30.18,15,5,18,0.00
2013-3-12,60,48,38,44,36,28,81,64,50,30.18,30.00,27,6,28,0.00
2013-3-13,58,52,44,48,42,38,82,71,56,30.12,30.02,9,2,12,0.00
2013-3-14,60,53,44,48,44,35,91,72,53,30.02,29.92,16,3,23,0.01
2013-3-15,62,51,40,43,37,32,83,62,33,30.13,30.02,21,5,21,0.00
2013-3-16,55,46,36,40,33,23,85,63,42,30.02,29.73,30,7,30,0.01
2013-3-17,48,38,30,30,24,18,90,59,29,30.07,29.81,24,7,24,0.00
2013-3-18,51,40,30,28,22,13,73,51,23,30.19,30.01,26,10,32,0.00
2013-3-19,51,40,29,38,26,20,89,58,34,30.24,29.76,14,4,17,0.08
2013-3-20,54,43,35,44,34,20,95,74,37,29.81,29.50,37,8,37,0.06
2013-3-21,47,39,30,27,22,18,71,53,32,30.08,29.81,28,7,28,0.00
2013-3-22,44,37,29,26,22,16,73,55,33,30.30,30.07,26,8,30,0.00
2013-3-23,47,38,29,26,20,14,76,51,27,30.37,30.27,15,3,17,0.00
2013-3-24,49,38,24,26,20,17,78,52,29,30.37,30.19,15,4,17,0.00
2013-3-25,53,42,28,28,21,17,68,45,28,30.20,29.99,15,4,15,0.00
2013-3-26,60,50,33,34,29,22,67,45,31,30.03,29.92,12,2,13,0.00
2013-3-27,58,49,42,37,35,32,75,59,40,29.98,29.91,13,3,13,0.00
2013-3-28,61,49,37,42,38,32,89,66,43,30.06,29.98,13,2,14,0.00
2013-3-29,66,53,42,41,37,34,83,57,32,30.17,30.06,13,3,19,0.00
2013-3-30,68,54,39,40,36,34,82,55,31,30.25,30.07,12,3,15,0.00
2013-3-31,71,56,41,41,36,-100,78,52,31,30.07,29.88,10,-7,11,0.00
2013-4-1,74,62,44,42,38,33,71,43,26,29.94,29.85,25,6,27,0.00
2013-4-2,71,60,50,41,38,35,61,46,30,30.01,29.91,23,8,24,0.00
2013-4-3,66,58,45,42,38,33,69,48,34,30.07,29.92,19,5,20,0.00
2013-4-4,56,51,47,50,45,38,96,79,53,29.92,29.67,9,3,11,0.11
2013-4-5,64,53,45,47,43,40,93,71,43,29.81,29.72,22,7,24,0.00
2013-4-6,58,51,44,42,36,29,83,58,33,29.83,29.74,29,9,31,0.03
2013-4-7,52,46,41,44,37,29,94,73,48,29.77,29.47,19,7,20,0.32
2013-4-8,54,46,38,40,36,29,83,69,46,30.20,29.74,16,4,20,0.00
2013-4-9,60,49,37,40,36,31,81,64,41,30.32,30.14,17,4,17,0.00
2013-4-10,62,52,44,46,38,31,82,62,36,30.14,29.81,39,10,39,0.00
2013-4-11,58,50,45,33,28,18,58,45,24,30.12,30.02,30,13,33,0.00
2013-4-12,46,41,32,26,25,24,79,54,42,30.08,30.03,17,3,17,0.00
2013-4-15,48,41,35,35,32,29,89,70,52,30.13,29.93,28,12,28,0.22
2013-4-16,50,42,36,31,23,14,71,48,24,30.36,30.13,31,10,31,0.00
2013-4-17,57,44,30,31,25,22,75,49,28,30.45,30.30,15,4,20,0.00
2013-4-18,62,50,38,44,34,30,75,56,37,30.32,30.10,17,4,17,0.00
2013-4-19,65,54,47,44,40,37,85,61,38,30.10,29.89,25,7,26,0.01
2013-4-20,63,53,43,38,35,32,76,51,33,30.07,29.95,26,11,28,0.00
2013-4-21,58,47,40,37,32,26,76,56,39,30.25,30.03,50,10,50,0.00
2013-4-22,60,48,37,27,21,6,53,36,12,30.48,30.24,30,9,31,0.00
2013-4-23,62,47,34,31,26,22,72,47,23,30.35,30.19,19,4,19,0.00
2013-4-24,69,56,45,37,30,26,54,37,23,30.27,29.90,24,8,24,0.00
2013-4-25,74,61,46,39,33,27,55,36,26,29.97,29.87,24,7,27,0.00
2013-4-26,79,65,50,43,36,25,63,37,14,30.10,29.97,23,6,23,0.00
2013-4-27,70,60,46,39,32,24,70,35,20,30.06,29.95,35,10,35,0.00
2013-4-28,65,53,43,40,33,20,78,51,20,30.04,29.83,32,9,32,0.00
2013-4-29,54,49,40,36,26,8,75,44,16,30.01,29.73,41,16,44,0.00
2013-4-30,56,46,35,26,21,11,63,39,19,30.34,30.01,28,11,30,0.00
2013-5-1,61,49,40,28,24,18,61,39,19,30.56,30.34,30,6,30,0.00
2013-5-2,70,55,39,37,29,23,68,39,21,30.56,30.21,15,4,17,0.00
2013-5-3,75,64,54,40,36,29,56,36,20,30.27,30.09,37,15,42,0.00
2013-5-4,76,66,57,38,34,26,43,31,17,30.20,29.98,31,15,33,0.00
2013-5-5,79,68,58,35,31,26,35,26,15,29.99,29.76,28,12,32,0.00
2013-5-6,86,70,55,43,34,27,51,28,12,29.82,29.64,13,3,14,0.00
2013-5-7,86,71,55,46,39,30,51,32,14,29.77,29.67,14,4,15,0.00
2013-5-8,88,73,56,50,45,38,65,38,19,29.90,29.76,15,4,15,0.00
2013-5-9,88,76,63,50,40,31,50,30,14,29.99,29.89,22,6,22,0.00
2013-5-10,91,75,60,51,40,32,55,30,15,30.06,29.94,18,4,18,0.00
2013-5-11,89,75,62,52,44,38,53,35,17,30.01,29.86,14,3,14,0.00
2013-5-12,78,70,59,54,50,46,73,51,39,29.93,29.86,18,4,18,0.00
2013-5-13,69,61,45,51,44,27,74,54,34,30.08,29.82,34,8,34,0.00
2013-5-14,68,54,43,36,30,19,64,43,18,30.12,29.99,21,5,22,0.00
2013-5-15,66,56,44,44,36,31,64,47,29,30.03,29.88,15,3,22,0.00
2013-5-16,71,60,54,47,43,40,77,55,33,29.91,29.78,26,4,26,0.00
2013-5-17,69,60,52,52,46,43,83,61,42,29.89,29.81,16,5,18,0.17
2013-5-18,68,58,49,44,41,36,75,53,34,30.08,29.88,22,6,22,0.00
2013-5-19,72,61,53,46,38,36,56,44,30,30.20,30.08,26,10,26,0.00
2013-5-20,74,61,48,46,42,38,75,50,30,30.20,29.77,14,5,19,0.00
2013-5-21,63,57,46,49,45,39,86,66,48,29.77,29.58,21,5,22,0.14
2013-5-22,51,46,42,43,40,36,92,79,62,29.95,29.71,20,9,20,0.07
2013-5-23,62,50,40,44,39,35,89,70,38,30.02,29.93,11,5,13,0.00
2013-5-24,59,50,46,47,42,39,86,74,56,29.97,29.89,21,4,21,0.03
2013-5-25,66,54,41,44,40,35,92,65,34,29.99,29.91,18,3,18,0.01
2013-5-26,69,58,46,48,43,40,82,60,36,29.92,29.86,12,4,16,0.00
2013-5-27,60,54,45,51,46,40,94,75,53,29.87,29.75,19,4,19,0.05
2013-5-28,68,57,50,52,47,41,95,72,38,29.79,29.66,20,3,20,0.00
2013-5-29,60,52,47,52,46,42,91,80,64,29.84,29.63,11,3,14,0.30
2013-5-30,66,56,46,44,38,32,82,55,32,30.08,29.84,23,8,23,0.00
2013-5-31,70,59,50,43,37,33,61,46,27,30.22,30.08,20,6,20,0.00
2013-6-1,74,62,48,48,42,38,79,51,28,30.16,29.89,20,4,20,0.00
2013-6-2,71,62,55,50,42,38,69,48,33,29.92,29.84,31,9,31,0.07
2013-6-3,76,64,55,46,43,39,66,47,29,29.98,29.89,24,9,24,0.00
2013-6-4,80,68,55,51,46,42,66,47,31,30.08,29.95,15,4,15,0.00
2013-6-5,87,71,57,53,47,43,65,45,24,29.97,29.82,19,4,19,0.00
2013-6-6,86,75,65,48,44,40,46,34,23,29.90,29.80,15,5,19,0.00
2013-6-10,77,68,55,44,37,33,51,33,21,29.82,29.66,27,6,27,0.00
2013-6-11,72,62,52,46,40,33,69,45,26,29.95,29.68,25,7,25,0.00
2013-6-12,70,59,46,42,37,33,70,45,26,30.01,29.92,19,6,19,0.00
2013-6-13,70,60,53,44,38,33,62,45,28,30.02,29.97,30,8,30,0.00
2013-6-14,74,62,52,45,40,37,64,45,30,30.08,29.95,17,7,21,0.00
2013-6-15,80,66,50,49,42,36,72,44,24,29.97,29.85,13,3,13,0.00
2013-6-16,84,73,61,56,44,37,62,35,23,29.94,29.81,20,5,20,0.00
2013-6-17,82,72,61,58,49,40,84,48,24,29.89,29.73,30,7,30,0.08
2013-6-18,62,58,54,57,54,52,93,87,81,29.88,29.78,14,3,14,0.38
2013-6-19,64,58,52,53,48,42,93,72,50,29.82,29.74,26,6,26,0.03
2013-6-20,59,56,53,51,47,42,89,73,56,29.99,29.80,22,6,22,0.16
2013-6-21,66,58,51,53,49,46,91,73,53,30.07,29.99,12,3,14,0.00
2013-6-22,74,63,54,54,50,47,86,66,42,30.05,29.85,19,4,20,0.00
2013-6-23,75,66,58,63,51,45,94,60,38,29.85,29.57,16,4,16,0.06
2013-6-24,66,60,55,60,56,51,91,84,68,29.66,29.54,15,3,15,0.13
2013-6-25,70,59,52,57,53,49,94,81,52,29.80,29.65,21,4,24,0.06
2013-6-26,72,62,51,59,53,48,92,75,55,30.02,29.79,14,3,15,0.00
2013-6-27,76,66,58,66,58,54,95,76,50,30.14,30.01,10,2,10,0.01
2013-6-28,88,74,58,69,59,54,88,61,36,30.16,29.95,12,2,13,0.00
2013-6-29,86,76,65,70,62,57,87,64,45,29.97,29.88,15,4,17,0.16
2013-6-30,94,79,65,73,61,52,82,57,27,29.97,29.83,10,2,10,0.00
2013-7-1,100,86,73,71,59,46,67,42,19,29.89,29.75,21,7,23,0.00
2013-7-2,100,86,69,69,60,48,71,42,24,29.87,29.72,20,5,21,0.00
2013-7-3,92,80,68,55,48,36,54,33,16,29.91,29.75,24,6,24,0.00
2013-7-4,86,75,67,52,42,36,53,31,19,29.81,29.70,31,10,31,0.00
2013-7-5,82,71,62,54,46,42,53,41,30,29.78,29.69,23,11,24,0.00
2013-7-6,85,73,62,57,50,44,63,46,26,29.82,29.71,14,4,15,0.00
2013-7-7,88,77,70,60,47,42,48,35,22,29.79,29.66,31,9,31,0.00
2013-7-8,86,76,68,57,51,46,59,43,26,29.94,29.74,17,5,25,0.00
2013-7-9,92,77,62,59,51,44,70,44,20,30.02,29.84,13,3,13,0.00
2013-7-10,92,77,60,59,49,39,66,41,19,29.85,29.66,21,5,21,0.00
2013-7-11,82,71,60,51,41,27,68,36,16,29.80,29.70,25,9,25,0.00
2013-7-12,74,66,52,44,36,25,59,35,21,29.92,29.78,31,6,31,0.00
2013-7-13,78,68,56,48,42,38,61,41,23,30.07,29.92,23,6,23,0.00
2013-7-14,86,72,54,53,44,30,63,40,20,30.03,29.80,17,4,17,0.00
2013-7-15,82,73,63,44,39,28,47,31,14,29.94,29.82,41,13,41,0.00
2013-7-16,92,78,65,53,43,36,45,31,16,29.89,29.70,44,15,44,0.00
2013-7-17,91,81,68,61,54,42,66,40,27,29.92,29.71,27,8,27,0.04
2013-7-18,91,80,70,66,56,48,62,46,30,30.02,29.89,30,7,30,0.00
2013-7-19,93,81,66,63,51,38,61,36,19,29.95,29.78,17,4,17,0.00
2013-7-20,97,83,72,55,42,23,49,26,8,29.83,29.66,23,6,23,0.00
2013-7-21,93,81,66,63,46,40,45,30,19,29.72,29.60,26,6,26,0.00
2013-7-22,93,81,67,57,47,40,47,31,17,29.78,29.64,21,8,23,0.00
2013-7-23,95,82,71,59,50,43,47,34,20,29.89,29.75,25,4,29,0.00
2013-7-24,95,82,68,58,48,40,53,32,16,29.86,29.76,13,4,16,0.00
2013-7-25,95,81,64,58,48,32,61,34,17,29.89,29.80,19,4,19,0.00
2013-7-26,93,81,63,52,42,33,51,26,14,29.94,29.80,24,6,24,0.00
2013-7-27,87,77,64,54,42,33,47,29,17,29.91,29.73,26,6,26,0.00
2013-7-28,84,74,64,58,46,41,51,37,26,29.78,29.68,31,8,31,0.00
2013-7-29,85,76,65,56,48,42,51,38,28,29.81,29.72,32,8,32,0.00
2013-7-30,88,78,70,63,47,40,49,34,19,29.96,29.81,30,8,30,0.00
2013-7-31,89,78,63,60,49,40,63,38,20,29.98,29.82,26,6,30,0.00
2013-8-1,82,74,64,60,53,48,78,49,36,29.85,29.75,32,9,33,0.05
2013-8-2,74,66,61,62,57,53,92,75,55,29.99,29.84,18,6,18,0.09
2013-8-3,79,68,58,60,58,56,91,72,48,30.05,29.94,17,3,17,0.00
2013-8-4,86,73,59,62,57,52,94,60,32,29.99,29.83,23,4,23,0.00
2013-8-5,90,77,64,64,58,46,82,53,24,29.90,29.75,20,3,20,0.00
2013-8-6,92,79,64,65,54,45,78,44,22,29.86,29.73,16,4,16,0.00
2013-8-7,91,80,68,56,48,38,62,33,17,29.83,29.73,20,4,20,0.00
2013-8-8,91,79,66,63,52,46,61,41,23,29.83,29.73,18,5,23,0.00
2013-8-9,93,80,66,68,57,50,70,46,28,29.81,29.65,19,4,19,0.00
2013-8-10,89,78,66,68,58,53,82,54,31,29.85,29.69,32,5,32,0.08
2013-8-11,85,74,65,65,58,51,81,59,33,29.90,29.79,31,4,31,0.00
2013-8-12,88,74,59,63,56,47,93,57,27,29.92,29.81,9,3,13,0.01
2013-8-13,88,74,60,61,54,47,83,54,25,29.96,29.83,8,3,11,0.00
2013-8-14,92,76,59,68,53,41,79,48,18,29.86,29.73,18,4,18,0.00
2013-8-15,86,77,69,64,56,50,73,49,34,29.84,29.76,20,5,20,0.00
2013-8-16,84,72,63,60,54,45,78,54,29,29.92,29.83,9,2,9,0.00
2013-8-17,85,74,61,64,55,47,87,54,29,29.92,29.82,18,4,19,0.00
2013-8-18,87,76,62,61,52,47,77,44,26,29.98,29.84,19,5,19,0.00
2013-8-19,85,73,58,59,51,46,83,48,30,29.93,29.85,24,6,24,0.00
2013-8-20,84,73,60,57,46,40,70,40,22,29.99,29.88,19,4,20,0.00
2013-8-21,87,76,62,67,46,37,64,36,18,30.01,29.85,25,4,25,0.00
2013-8-22,88,74,61,66,49,40,68,43,22,29.88,29.67,9,2,9,0.00
2013-8-23,84,74,63,62,55,45,80,53,34,29.73,29.66,12,3,14,0.05
2013-8-24,82,70,58,60,52,48,82,54,31,29.77,29.66,11,2,12,0.00
2013-8-25,80,68,60,58,51,43,89,55,30,29.84,29.71,33,4,38,0.16
2013-8-26,77,65,56,59,56,52,94,73,46,29.89,29.79,14,4,14,0.00
2013-8-27,82,65,53,59,52,49,88,66,36,29.91,29.71,13,3,15,0.00
2013-8-28,85,74,60,62,55,51,74,52,34,29.79,29.69,12,4,15,0.00
2013-8-29,82,75,64,65,58,53,84,56,42,29.92,29.75,24,5,24,0.00
2013-8-30,80,70,58,62,54,46,92,59,33,30.04,29.91,12,4,14,0.00
2013-8-31,87,73,61,68,49,46,66,44,25,30.01,29.80,20,4,22,0.00
2013-9-1,91,76,58,59,50,44,74,42,22,29.81,29.64,13,3,13,0.00
2013-9-2,85,73,59,59,54,47,73,52,35,29.80,29.67,16,4,17,0.00
2013-9-3,86,75,67,61,57,52,75,54,32,29.85,29.78,18,4,20,0.00
2013-9-4,87,74,70,63,50,-100,67,47,38,29.89,29.79,21,-40,21,0.07
2013-9-5,83,74,63,65,60,57,92,63,48,29.89,29.72,30,7,37,0.42
2013-9-6,69,61,56,59,56,54,93,83,63,30.07,29.80,16,4,16,0.04
2013-9-7,68,61,54,62,56,52,96,84,61,30.08,29.99,9,3,10,0.00
2013-9-8,81,67,50,61,55,47,94,69,38,30.04,29.88,11,3,12,0.00
2013-9-9,85,71,57,62,55,52,93,59,33,29.94,29.83,11,2,12,0.00
2013-9-10,89,74,60,61,54,47,86,52,30,29.96,29.85,19,3,20,0.00
2013-9-11,93,81,72,58,50,45,39,34,23,29.96,29.85,25,10,26,0.00
2013-9-12,95,82,72,62,52,46,51,36,19,29.88,29.73,25,9,26,0.00
2013-9-13,95,80,64,60,53,47,66,41,23,29.76,29.61,12,2,16,0.00
2013-9-14,93,82,65,67,54,47,61,39,28,29.76,29.64,25,6,27,0.00
2013-9-15,91,79,64,66,52,-100,89,42,29,29.69,29.47,40,8,46,0.47
2013-9-16,77,66,60,60,56,48,93,71,38,29.78,29.63,12,4,14,0.00
2013-9-17,69,61,52,56,50,43,93,67,49,29.76,29.64,24,5,27,0.00
2013-9-18,71,61,50,51,44,39,80,54,32,30.00,29.74,19,6,20,0.02
2013-9-19,73,59,44,54,42,34,92,57,25,30.07,29.84,13,3,13,0.00
2013-9-20,77,65,55,63,44,32,81,48,20,29.84,29.49,16,5,18,0.00
2013-9-21,72,63,55,56,47,41,77,58,34,29.60,29.50,21,4,24,0.00
2013-9-22,65,54,46,52,46,41,91,75,44,29.69,29.58,26,4,29,0.08
2013-9-23,64,56,48,56,46,42,90,69,47,29.87,29.69,17,5,20,0.00
2013-9-24,64,55,49,51,41,33,89,61,33,29.87,29.72,17,4,17,0.00
2013-9-25,66,57,45,47,36,27,80,49,24,29.89,29.73,29,8,31,0.00
2013-9-26,66,56,51,48,41,36,77,59,35,30.01,29.89,31,11,31,0.00
2013-9-27,56,51,43,47,43,36,88,75,58,30.01,29.86,18,4,18,0.04
2013-9-28,67,56,49,54,49,45,94,78,51,29.86,29.38,46,10,48,0.06
2013-9-29,62,54,46,49,43,40,85,69,50,29.59,29.30,32,10,32,0.02
2013-9-30,61,53,44,51,40,34,90,62,44,29.88,29.32,34,10,34,0.00
2013-10-1,58,48,38,45,38,33,90,69,48,30.09,29.87,19,3,19,0.00
2013-10-2,53,45,37,42,38,32,92,76,58,30.13,30.03,22,5,23,0.00
2013-10-3,62,52,44,43,37,30,89,58,30,30.36,30.08,32,10,36,0.00
2013-10-4,63,51,39,42,37,32,91,59,34,30.50,30.36,16,3,17,0.00
2013-10-5,65,51,39,43,38,34,93,65,38,30.40,30.22,13,3,14,0.00
2013-10-6,68,53,38,43,38,34,87,60,33,30.23,29.88,7,2,7,0.00
2013-10-7,65,54,43,43,36,31,73,52,30,29.88,29.80,31,7,33,0.00
2013-10-8,58,50,41,39,36,31,80,60,40,30.00,29.83,23,6,26,0.00
2013-10-9,60,51,41,41,36,32,82,58,37,30.08,29.85,21,4,23,0.00
2013-10-10,64,53,44,41,36,32,81,54,30,29.96,29.81,20,4,20,0.00
2013-10-11,59,52,44,38,33,30,70,50,33,30.09,29.96,21,3,21,0.00
2013-10-12,54,50,44,41,37,33,75,62,53,30.13,29.98,20,4,20,0.00
2013-10-13,61,53,47,37,34,30,62,49,33,30.28,30.13,28,10,29,0.00
2013-10-14,61,51,42,35,31,29,67,48,30,30.39,30.27,23,6,24,0.00
2013-10-15,61,48,34,38,33,28,80,57,34,30.40,30.15,11,3,13,0.00
2013-10-16,64,53,41,40,36,33,76,55,35,30.17,30.10,19,5,22,0.00
2013-10-17,64,55,45,40,35,32,66,48,30,30.24,30.14,19,4,21,0.00
2013-10-18,62,52,39,40,38,33,80,59,43,30.30,30.16,7,2,9,0.00
2013-10-19,62,47,35,44,38,32,92,72,48,30.17,30.08,7,2,10,0.00
2013-10-20,70,53,40,48,41,34,84,65,39,30.16,30.06,7,2,8,0.00
2013-10-21,68,53,41,46,42,37,92,67,46,30.19,30.10,8,1,8,0.00
2013-10-22,68,53,43,48,42,37,84,69,47,30.18,30.05,6,1,8,0.00
2013-10-23,68,55,43,48,43,38,85,66,44,30.14,30.04,12,2,13,0.00
2013-10-24,66,52,43,48,43,38,88,72,48,30.12,30.03,7,1,8,0.00
2013-10-25,64,50,40,48,43,37,92,76,53,30.24,30.08,8,1,10,0.00
2013-10-26,62,49,40,47,42,37,92,78,55,30.31,30.03,6,1,7,0.00
2013-10-27,53,46,38,46,41,35,94,84,63,30.03,29.77,35,8,37,0.14
2013-10-28,52,46,38,28,24,21,58,43,31,29.99,29.89,32,13,33,0.00
2013-10-29,51,43,35,30,25,23,66,51,36,30.03,29.95,17,4,17,0.00
2013-10-30,49,37,27,33,27,21,84,66,46,30.10,30.00,7,1,7,0.00
2013-10-31,64,47,33,41,34,28,87,64,37,30.16,30.01,19,6,24,0.00
2013-11-1,59,52,42,42,38,31,75,60,50,30.23,29.91,15,5,16,0.00
2013-11-2,56,47,36,46,38,30,93,72,44,29.90,29.49,39,6,43,0.28
2013-11-3,52,41,34,35,29,22,87,64,36,30.03,29.77,19,5,20,0.00
2013-11-4,48,39,30,26,22,19,69,52,33,30.17,30.03,14,3,15,0.00
2013-11-5,38,36,33,35,32,24,92,86,59,30.25,30.13,13,3,13,0.03
2013-11-6,41,37,32,36,34,30,93,86,79,30.41,30.25,7,1,8,0.09
2013-11-7,41,39,36,39,36,33,94,91,87,30.26,29.79,12,2,13,0.09
2013-11-8,52,42,36,40,36,30,93,78,48,30.14,29.90,13,4,14,0.00
2013-11-9,44,39,31,39,35,28,93,85,78,30.23,30.14,14,2,14,0.01
2013-11-10,49,44,40,40,38,37,91,81,72,30.26,30.14,21,6,22,0.00
2013-11-11,53,47,43,42,38,36,78,71,61,30.35,30.21,23,12,23,0.00
2013-11-12,47,43,40,44,40,36,94,88,74,30.35,30.22,14,2,17,0.02
2013-11-13,44,40,36,42,38,34,100,93,86,30.39,30.25,14,2,14,0.00
2013-11-14,48,38,29,42,36,27,96,91,76,30.25,29.94,11,2,12,0.00
2013-11-15,47,36,28,39,33,27,96,89,60,29.95,29.52,30,5,30,0.02
2013-11-16,49,45,35,34,28,25,84,50,39,29.56,29.36,21,9,22,0.00
2013-11-18,52,48,44,43,41,38,88,77,69,29.84,29.59,17,5,19,0.00
2013-11-19,57,47,37,43,32,18,89,58,23,29.89,29.53,32,8,32,0.00
2013-11-20,38,33,26,19,-2,-9,49,23,15,30.45,29.88,28,7,31,0.00
2013-11-21,37,30,22,13,11,8,62,46,36,30.73,30.68,6,2,6,0.00
2013-11-22,38,32,26,18,15,12,57,49,40,30.81,30.72,7,2,9,0.00
2013-11-23,39,32,23,19,16,14,83,53,39,30.63,30.42,6,2,7,0.00
2013-11-24,38,32,26,23,21,18,77,63,52,30.45,30.37,5,2,6,0.00
2013-11-25,38,32,21,26,23,16,83,70,58,30.52,30.43,7,1,8,0.00
2013-11-26,40,33,25,28,25,21,87,73,61,30.44,30.25,7,1,7,0.00
2013-11-27,43,36,23,32,28,20,90,73,62,30.27,30.16,7,2,8,0.00
2013-11-28,41,30,22,30,25,19,92,81,64,30.29,30.19,11,1,11,0.00
2013-11-29,22,22,21,20,20,19,92,92,92,30.31,30.28,4,1,4,0.00
2013-11-30,31,31,30,30,30,29,96,96,95,30.35,30.24,4,0,5,0.01
2013-12-1,48,41,34,42,37,33,97,87,68,29.86,29.63,25,7,26,0.01
2013-12-2,46,36,26,37,23,12,75,59,43,30.00,29.63,45,13,48,0.00
2013-12-3,32,26,21,19,12,9,80,55,43,30.34,30.00,44,21,45,0.00
2013-12-4,28,23,19,10,7,5,60,51,42,30.40,30.34,25,10,26,0.00
2013-12-5,21,18,14,8,5,4,64,58,47,30.40,30.34,7,2,7,0.00
2013-12-6,22,20,19,3,2,1,49,45,43,30.32,30.30,21,11,22,0.00
2013-12-7,20,15,8,-3,-6,-7,52,39,30,30.44,30.37,22,8,22,0.00
2013-12-8,20,12,9,3,0,-2,63,57,46,30.63,30.56,6,2,6,0.00
2013-12-9,23,18,13,7,5,3,67,56,47,30.55,30.46,7,2,7,0.00
2013-12-10,27,21,15,12,10,7,71,61,51,30.53,30.50,6,3,7,0.00
2013-12-11,32,29,26,22,20,16,77,68,61,30.53,30.40,6,1,7,0.00
2013-12-12,29,26,23,24,21,18,85,79,74,30.28,30.17,5,1,5,0.00
2013-12-13,35,29,25,24,22,19,85,75,64,30.48,30.38,5,1,6,0.00
2013-12-14,33,28,26,29,25,22,91,86,77,30.48,30.31,6,1,7,0.00
2013-12-15,36,31,24,34,29,22,95,90,83,30.33,30.26,7,2,7,0.00
2013-12-16,41,35,27,36,31,24,94,83,76,30.43,30.34,8,2,9,0.00
2013-12-17,34,29,20,32,27,18,95,94,90,30.34,30.01,5,1,6,0.01
2013-12-18,38,29,19,34,25,17,96,87,52,30.03,29.93,35,5,35,0.01
2013-12-19,35,31,27,14,10,6,52,42,33,30.30,30.16,29,3,30,0.00
2013-12-21,29,29,29,25,25,25,86,86,86,30.11,30.11,5,5,5,0.00
2013-12-22,34,30,28,29,26,24,91,85,78,30.34,30.30,9,1,9,0.00
2013-12-23,44,34,26,37,28,23,100,82,57,30.41,30.06,34,5,43,0.01
2013-12-24,41,35,25,30,26,20,87,71,58,30.56,30.41,13,3,13,0.00
2013-12-25,36,32,28,30,28,25,90,83,77,30.57,30.46,6,1,7,0.00
2013-12-26,39,33,26,31,28,23,93,83,72,30.47,30.35,6,1,8,0.00
2013-12-27,32,29,24,30,27,23,95,92,88,30.31,30.12,15,3,17,0.01
2013-12-28,29,25,22,28,24,21,96,95,94,30.56,30.30,11,1,11,0.00
2013-12-29,27,25,24,26,24,22,96,95,94,30.53,30.31,6,1,6,0.00
2013-12-30,33,31,26,32,30,25,100,95,92,30.37,30.16,7,1,8,0.00
2013-12-31,35,30,22,34,28,20,97,95,89,30.37,30.14,10,2,11,0.00
2014-1-1,31,28,25,30,27,24,97,96,95,30.51,30.40,8,2,9,0.00
2014-1-2,32,31,29,31,30,28,97,97,96,30.40,29.85,9,2,9,0.00